Regional Weather Roundup
Issued by NWS

Home | Current Version | Previous Version | Graphics & Text | Print | Product List | Glossary On
Versions: 1 2 3 4 5 6 7 8 9 10 11 12 13 14 15 16 17 18 19 20 21 22 23 24 25 26 27 28 29 30 31 32 33 34 35 36 37 38 39 40 41 42 43 44 45 46 47 48 49 50
000
ASUS43 KBIS 220620
RWRND

NORTH DAKOTA REGIONAL WEATHER ROUNDUP
NATIONAL WEATHER SERVICE BISMARCK ND
100 AM CDT TUE JUL 22 2014

NOTE: "FAIR" INDICATES FEW OR NO CLOUDS BELOW 12,000 FEET WITH NO
SIGNIFICANT WEATHER AND/OR OBSTRUCTIONS TO VISIBILITY.


NDZ001>003-009>011-017-220700-
NORTHWEST NORTH DAKOTA

CITY           SKY/WX    TMP DP  RH WIND       PRES   REMARKS
WILLISTON      CLEAR     62  58  86 NE5       30.04R
6HR MIN TEMP:  60; 6HR MAX TEMP:  77;

MINOT          MOCLDY    63  61  93 NW8       29.98R
MINOT AFB      MOCLDY    62  62 100 NW8       29.98S
$$

NDZ018>021-031>035-040>046-220700-
SOUTHWEST NORTH DAKOTA

CITY           SKY/WX    TMP DP  RH WIND       PRES   REMARKS
BISMARCK       CLEAR     64  62  93 NW8       29.99R
6HR MIN TEMP:  64; 6HR MAX TEMP:  69; 6HR PCP:  0.01;

DICKINSON      CLEAR     61  58  90 N6        30.03R
GARRISON         N/A     63  62  97 NW6       30.00R
6HR MIN TEMP:  63; 6HR MAX TEMP:  66; 6HR PCP:  0.03;

HETTINGER ARPT PTCLDY    61  59  93 W6        30.10R FOG
$$

NDZ004>008-012>016-024-026-027-054-220700-
NORTHEAST NORTH DAKOTA

CITY           SKY/WX    TMP DP  RH WIND       PRES   REMARKS
GRAND FORKS    LGT RAIN  66  64  94 NW9       29.83S
GRND FRKS AFB  CLOUDY    64  64 100 NW10      29.85S
DEVILS LAKE    CLOUDY    64  59  82 N14       29.92S
$$

NDZ022-023-025-028>030-036>039-047>053-220700-
SOUTHEAST NORTH DAKOTA

CITY           SKY/WX    TMP DP  RH WIND       PRES   REMARKS
FARGO          LGT RAIN  67  65  93 N25G31    29.74F
6HR MIN TEMP:  67; 6HR MAX TEMP:  87; 6HR PCP:  0.51;

JAMESTOWN      CLOUDY    67  65  93 NW9       29.91R
$$



USA.gov is the U.S. government's official web portal to all federal, state and local government web resources and services.